Wind_Speed
13 11 10 10 11 11 12 13 14 15 16 17 19 21 21 20 20 19 18 18 18 18 18 18 19 20 21 22 23 24 25 27 29 32 34 36 37 38 39 40 41 41 41 40
13 11 11 12 13 14 14 14 15 16 18 21 21 22 21 20 21 20 20 19 19 18 19 19 20 21 22 23 24 25 27 28 31 33 36 38 39 40 41 42 42 42 42 41
13 12 12 12 13 14 14 14 14 16 18 20 21 22 22 21 21 21 20 20 20 20 20 20 21 22 23 24 25 26 28 30 33 35 37 39 40 42 42 43 43 43 42 41
13 12 12 12 14 14 15 16 16 17 19 21 22 22 22 21 20 20 21 21 21 22 22 22 22 23 25 26 27 28 30 32 34 36 38 40 42 43 44 44 44 43 42 41
14 13 14 14 17 16 16 16 16 17 19 21 21 21 23 22 20 20 21 21 22 23 23 24 24 25 26 27 28 30 32 35 36 38 40 42 44 44 45 44 44 43 42 40
16 16 17 19 22 20 18 18 19 18 20 21 22 21 22 24 23 23 23 22 23 24 25 25 26 27 28 29 30 32 34 36 37 39 41 44 45 45 45 45 45 43 42 40
17 17 18 22 22 23 20 20 18 18 21 22 25 25 24 25 25 25 25 24 24 25 26 26 27 28 30 31 33 35 37 38 39 42 44 45 45 45 46 45 45 44 42 41
20 20 22 24 24 27 26 23 20 22 25 26 26 26 26 26 26 25 26 26 27 28 27 28 29 30 31 33 35 37 39 40 42 43 45 46 47 47 46 46 45 44 42 40
25 26 27 28 26 27 26 24 24 24 26 27 27 26 28 28 27 27 28 28 28 29 29 30 31 32 34 35 38 41 42 42 44 45 46 47 47 47 46 46 45 44 42 40
27 28 29 29 27 25 26 25 26 27 28 29 29 28 29 29 28 28 29 30 31 31 33 34 34 34 36 39 41 42 44 45 46 46 47 47 48 48 47 46 45 44 41 40
29 30 31 32 32 30 27 28 28 28 29 29 29 29 30 31 30 30 31 32 33 34 36 37 37 37 40 42 42 44 45 46 47 48 48 48 48 48 47 46 45 43 41 39
31 31 32 33 32 31 31 31 31 30 31 31 31 31 31 32 33 34 34 35 35 36 39 40 40 42 42 43 44 45 47 49 49 49 49 49 49 49 47 46 44 42 40 39
30 30 32 33 33 32 33 33 33 32 32 33 33 33 33 34 35 36 37 38 39 39 41 42 43 44 45 47 47 48 48 49 49 49 49 49 49 48 47 45 43 41 39 37
30 31 32 33 33 32 33 34 34 34 34 34 34 35 35 36 37 38 39 40 41 42 43 45 46 47 48 48 49 49 50 50 51 50 49 49 49 48 47 45 42 40 37 35
31 32 33 33 34 34 34 35 36 36 36 36 36 37 37 38 39 40 41 42 43 44 46 47 49 49 50 50 51 51 52 52 52 51 50 50 49 48 46 43 41 38 36 34
31 33 34 35 35 36 36 37 37 38 38 38 39 39 39 40 40 41 43 44 46 47 49 50 51 51 51 52 53 53 53 52 52 51 51 50 49 47 45 42 40 37 34 32
34 35 35 36 37 38 38 39 39 39 40 40 40 41 41 42 43 44 46 47 49 50 51 52 51 51 52 54 54 54 53 53 53 52 51 49 47 45 43 41 38 35 32 30
35 36 37 37 38 39 40 40 41 41 41 42 43 43 44 46 47 47 48 49 50 52 53 53 53 54 54 55 54 54 54 53 52 51 49 47 45 43 41 38 35 33 30 28
36 37 38 38 39 40 41 42 42 43 44 45 46 47 47 49 50 50 51 51 52 53 54 54 55 55 55 55 55 54 53 52 50 49 47 45 44 41 38 36 33 31 28 26
37 38 39 40 41 41 42 43 44 45 47 48 48 49 50 51 51 52 53 53 54 55 55 55 55 55 55 55 54 53 52 51 49 48 45 43 41 38 35 33 30 28 26 25
39 40 41 42 43 43 44 46 47 48 49 50 50 51 52 53 53 54 54 55 56 56 55 55 55 55 54 53 52 51 50 49 47 45 43 41 38 34 31 30 28 26 24 24
41 42 43 44 45 46 46 47 49 50 50 51 52 53 53 54 54 55 55 56 56 55 54 54 54 54 53 52 51 50 49 47 45 42 40 38 34 32 30 28 26 25 23 22
43 44 45 45 46 47 48 49 50 50 51 52 52 53 53 53 53 53 54 54 54 53 53 53 52 52 51 51 50 49 47 44 41 39 36 34 31 29 27 26 25 23 21 20
45 46 46 47 47 48 49 49 50 51 51 52 52 52 52 52 52 52 52 52 52 52 52 51 51 50 50 49 48 46 44 41 38 35 33 30 28 26 25 24 23 22 21 19
47 47 47 48 48 49 50 50 51 51 51 51 51 51 51 51 51 51 51 51 51 50 50 49 49 48 46 45 43 41 39 36 33 31 29 26 25 23 22 20 19 20 19 17
47 48 48 48 49 49 49 49 49 49 50 50 49 49 49 49 49 49 48 48 47 46 46 46 44 43 41 39 38 36 33 30 28 26 24 23 23 21 20 20 19 18 17 15
47 47 48 48 48 48 48 48 47 47 46 46 46 45 45 45 44 44 43 42 42 41 42 41 40 38 36 35 33 31 28 25 24 22 20 19 19 19 18 18 18 17 15 13
Wind_Direction
265 280 288 288 284 277 268 266 267 271 280 286 285 290 297 302 302 302 302 303 305 308 311 314 316 318 320 320 320 321 322 324 326 328 329 329 329 329 329 328 327 325 324 322
264 262 265 268 271 270 266 267 264 264 266 270 277 285 292 297 298 298 299 300 303 305 308 311 314 316 318 318 317 317 320 322 325 327 329 330 330 330 329 328 328 326 325 324
268 259 257 260 260 264 262 261 261 261 263 269 278 285 291 294 295 296 297 299 302 305 307 310 312 314 316 317 317 317 319 322 325 327 329 330 330 330 329 329 328 327 326 324
269 264 260 268 263 263 264 262 260 263 271 276 282 287 289 292 294 296 298 300 302 304 306 308 310 312 314 316 316 317 318 321 323 324 326 328 330 330 330 329 329 328 326 325
270 264 262 256 257 257 257 257 261 261 267 275 281 288 291 294 296 296 297 298 300 302 305 307 309 311 312 314 315 316 318 320 321 323 325 328 330 330 330 330 330 328 327 326
272 266 265 262 261 262 256 253 254 260 268 275 280 286 291 296 297 297 297 297 299 302 304 305 307 310 311 312 315 316 316 318 321 323 325 327 329 330 330 330 330 329 327 326
274 267 263 262 263 270 265 258 260 265 273 275 280 286 290 293 294 294 296 297 298 299 300 302 304 307 309 310 313 315 316 318 320 322 324 326 327 328 329 329 329 328 327 325
276 269 258 259 257 260 264 264 269 272 275 277 281 284 288 289 291 291 292 296 296 296 297 299 301 304 308 310 312 314 316 317 318 320 323 325 326 327 328 328 328 327 325 324
268 268 265 262 260 262 270 274 277 280 280 283 284 286 287 288 289 290 290 291 293 295 296 299 301 303 306 310 312 313 315 316 317 319 321 322 324 325 326 326 326 326 325 324
266 271 271 271 278 279 281 281 282 282 281 282 283 284 285 286 286 287 289 290 292 294 296 297 300 302 305 308 310 312 314 315 316 318 320 321 322 323 324 325 325 325 324 324
263 266 270 272 277 281 280 281 278 277 278 280 282 283 284 285 285 286 288 288 289 292 296 299 300 301 304 306 307 310 313 315 316 316 317 319 320 321 322 323 323 323 322 322
268 272 274 276 278 279 279 278 278 279 280 280 281 283 283 283 285 286 287 289 291 294 296 298 300 302 304 306 307 309 311 313 314 315 316 317 318 320 321 321 321 320 319 320
268 271 273 275 276 277 278 279 280 280 280 280 281 282 282 282 283 285 286 288 291 293 294 295 298 301 303 305 307 308 309 311 312 313 314 315 316 317 318 318 318 317 317 318
268 270 272 273 275 277 278 280 281 281 281 281 282 282 282 282 283 285 286 288 290 291 293 294 297 299 302 304 305 306 307 309 310 310 311 312 313 314 315 316 315 315 315 316
267 269 271 274 275 277 278 280 282 283 283 283 283 284 284 284 284 286 287 289 290 291 292 294 296 298 301 302 302 303 305 306 307 308 308 309 310 311 312 312 312 312 312 312
268 270 273 275 277 278 280 281 282 283 284 285 285 285 286 286 287 287 288 289 290 291 292 293 295 297 299 299 300 301 303 304 304 305 305 306 307 308 309 309 310 310 310 310
272 274 275 277 278 280 282 283 284 285 285 286 286 287 287 287 288 289 290 290 291 292 292 293 295 296 297 297 298 299 300 301 301 302 303 303 304 304 305 306 306 306 306 308
276 277 278 279 281 282 283 285 286 287 288 288 288 288 289 289 289 290 291 291 292 292 293 294 295 295 296 297 298 298 299 299 300 300 301 301 301 301 302 302 302 302 302 302
277 278 279 281 282 284 285 286 287 288 288 288 289 290 291 291 291 291 292 292 292 292 294 294 295 295 296 296 297 297 297 297 298 298 298 298 298 298 298 298 298 298 298 298
279 280 281 282 284 285 286 287 288 288 289 289 290 291 291 291 292 292 292 292 293 294 294 294 294 294 295 295 296 296 296 296 296 296 295 295 295 294 293 293 294 293 292 292
281 282 283 284 285 286 287 288 288 288 289 290 290 291 291 292 292 292 293 293 293 294 294 294 294 294 294 294 294 294 295 295 294 294 293 292 291 289 286 287 287 285 286 288
282 283 284 285 286 286 287 288 288 289 290 291 291 292 292 293 293 294 294 294 294 295 295 294 294 294 295 294 294 294 294 293 292 291 290 289 286 282 280 281 281 281 282 282
284 285 285 286 287 287 288 289 289 290 291 292 293 293 294 294 295 295 295 295 296 296 295 295 295 295 295 294 294 293 293 292 290 287 286 284 281 277 275 275 275 276 276 277
286 286 287 287 288 289 290 290 290 291 292 293 293 294 295 295 295 296 296 296 296 296 296 296 295 295 294 294 294 293 291 289 286 283 281 278 276 272 268 266 267 267 268 270
286 287 288 289 290 290 291 292 292 293 294 294 295 295 296 296 297 297 297 297 297 297 297 296 296 296 295 295 294 293 290 287 283 279 276 271 268 264 261 258 258 259 261 264
287 288 289 290 291 291 292 293 294 294 295 295 296 297 297 297 298 298 298 298 298 298 299 299 298 298 297 295 294 293 291 285 279 273 269 265 260 257 255 251 250 253 253 257
288 289 290 291 291 292 293 294 295 296 296 297 297 298 298 299 299 300 299 299 299 299 300 300 299 298 297 296 295 293 288 282 274 266 261 257 251 247 247 244 243 246 247 248
Height
5852 5852 5851 5852 5853 5854 5854 5854 5854 5852 5850 5848 5848 5848 5847 5846 5845 5843 5842 5841 5839 5838 5836 5834 5832 5830 5828 5825 5822 5819 5816 5813 5809 5804 5799 5794 5788 5782 5776 5769 5763 5756 5750 5743
5849 5849 5849 5850 5850 5851 5851 5851 5850 5850 5849 5846 5845 5845 5844 5843 5842 5840 5838 5837 5836 5834 5832 5831 5828 5826 5824 5821 5818 5815 5811 5808 5803 5798 5793 5787 5781 5775 5768 5762 5755 5748 5741 5735
5845 5845 5845 5846 5847 5847 5846 5846 5846 5846 5844 5842 5841 5841 5840 5839 5838 5836 5834 5833 5831 5830 5828 5826 5824 5822 5819 5816 5813 5810 5806 5802 5797 5792 5787 5781 5775 5768 5761 5754 5747 5740 5733 5726
5840 5841 5841 5844 5842 5842 5842 5842 5841 5841 5839 5838 5837 5836 5835 5834 5833 5831 5830 5828 5827 5825 5823 5821 5819 5817 5814 5811 5807 5804 5800 5796 5791 5785 5780 5773 5767 5760 5753 5746 5739 5732 5724 5717
5836 5836 5836 5837 5836 5836 5836 5836 5836 5836 5835 5833 5832 5831 5829 5828 5827 5827 5825 5824 5822 5820 5818 5816 5813 5811 5808 5805 5801 5797 5793 5789 5784 5778 5772 5766 5759 5752 5745 5738 5730 5723 5716 5709
5832 5832 5832 5832 5830 5829 5831 5829 5829 5829 5829 5828 5827 5825 5824 5823 5822 5821 5820 5818 5816 5814 5812 5810 5807 5804 5801 5798 5794 5790 5786 5781 5776 5771 5765 5758 5751 5744 5737 5730 5722 5715 5708 5702
5826 5826 5827 5825 5824 5824 5825 5823 5821 5822 5823 5822 5821 5820 5819 5817 5816 5814 5813 5811 5810 5808 5806 5804 5801 5798 5795 5791 5787 5783 5778 5773 5768 5763 5756 5750 5743 5736 5729 5722 5715 5708 5701 5694
5819 5819 5821 5818 5818 5818 5817 5815 5814 5816 5817 5816 5814 5813 5812 5810 5809 5808 5806 5805 5803 5801 5799 5797 5794 5791 5788 5784 5780 5775 5770 5765 5760 5754 5748 5741 5734 5728 5721 5714 5707 5700 5693 5687
5815 5814 5812 5809 5807 5808 5809 5810 5811 5810 5810 5809 5807 5806 5805 5804 5803 5802 5800 5798 5796 5794 5791 5789 5786 5783 5780 5776 5772 5767 5762 5757 5751 5745 5739 5733 5726 5720 5713 5706 5699 5692 5685 5679
5808 5806 5804 5802 5800 5802 5804 5804 5804 5804 5804 5802 5801 5800 5798 5796 5796 5794 5792 5790 5788 5786 5783 5780 5778 5775 5771 5767 5763 5758 5753 5748 5742 5737 5731 5725 5718 5712 5705 5698 5691 5684 5677 5671
5802 5801 5799 5797 5798 5799 5798 5799 5798 5797 5796 5795 5793 5792 5791 5789 5787 5786 5784 5782 5779 5777 5774 5771 5769 5766 5762 5758 5754 5749 5744 5738 5733 5727 5721 5716 5709 5703 5696 5689 5682 5676 5669 5663
5795 5795 5793 5791 5792 5792 5790 5790 5790 5789 5788 5787 5785 5784 5783 5781 5779 5777 5775 5773 5770 5768 5765 5762 5759 5756 5752 5748 5744 5739 5734 5729 5723 5717 5711 5705 5699 5693 5687 5681 5674 5668 5661 5656
5789 5787 5786 5785 5785 5784 5783 5782 5781 5781 5780 5778 5777 5776 5774 5772 5770 5768 5766 5764 5761 5759 5756 5752 5749 5745 5741 5737 5733 5728 5723 5718 5712 5707 5701 5695 5689 5684 5678 5672 5666 5660 5654 5648
5781 5780 5778 5778 5777 5776 5775 5773 5772 5771 5771 5769 5768 5766 5765 5763 5761 5758 5756 5754 5751 5748 5745 5742 5738 5734 5730 5726 5722 5717 5712 5707 5701 5696 5691 5685 5680 5674 5668 5663 5657 5652 5646 5641
5772 5771 5771 5770 5769 5768 5767 5765 5763 5762 5761 5759 5758 5756 5755 5753 5751 5748 5746 5743 5740 5737 5733 5730 5726 5722 5719 5715 5710 5705 5700 5695 5690 5685 5679 5674 5669 5664 5658 5653 5648 5643 5638 5633
5762 5762 5762 5761 5760 5759 5757 5756 5754 5752 5751 5749 5747 5746 5744 5741 5739 5737 5734 5731 5728 5725 5721 5717 5714 5710 5706 5702 5697 5692 5688 5683 5678 5673 5668 5663 5658 5653 5648 5643 5638 5634 5630 5625
5754 5754 5753 5752 5751 5749 5748 5746 5744 5742 5740 5738 5736 5734 5732 5730 5727 5725 5722 5718 5715 5711 5707 5704 5701 5697 5693 5688 5683 5679 5675 5670 5665 5660 5655 5651 5646 5642 5638 5633 5629 5625 5622 5618
5745 5744 5743 5742 5741 5739 5737 5735 5733 5731 5729 5727 5725 5722 5720 5717 5714 5712 5708 5705 5701 5697 5693 5690 5686 5682 5677 5673 5669 5665 5660 5656 5651 5647 5642 5638 5634 5630 5627 5623 5620 5616 5614 5611
5736 5735 5733 5732 5730 5728 5726 5724 5722 5720 5717 5715 5712 5709 5707 5703 5700 5697 5694 5690 5686 5682 5679 5675 5671 5666 5662 5658 5654 5650 5645 5641 5637 5633 5629 5626 5622 5619 5616 5613 5611 5608 5605 5603
5726 5724 5723 5721 5719 5717 5715 5712 5710 5707 5704 5701 5699 5696 5692 5689 5686 5682 5678 5674 5671 5667 5663 5658 5654 5650 5646 5642 5638 5634 5630 5626 5622 5619 5616 5613 5610 5608 5605 5603 5602 5600 5597 5595
5715 5713 5711 5709 5707 5705 5703 5700 5697 5694 5691 5687 5684 5681 5677 5674 5670 5666 5662 5658 5654 5651 5646 5642 5637 5633 5629 5625 5621 5618 5614 5611 5608 5605 5602 5600 5598 5596 5595 5593 5592 5591 5589 5588
5703 5701 5699 5697 5694 5692 5689 5686 5683 5680 5676 5673 5669 5666 5662 5658 5654 5650 5645 5641 5637 5633 5629 5625 5620 5616 5613 5609 5605 5602 5598 5595 5593 5590 5588 5587 5586 5585 5584 5583 5583 5583 5582 5581
5691 5688 5686 5684 5681 5678 5675 5672 5669 5665 5662 5658 5654 5650 5646 5642 5638 5633 5629 5625 5621 5616 5612 5608 5604 5600 5596 5592 5589 5585 5582 5580 5578 5576 5575 5574 5574 5574 5574 5574 5574 5575 5575 5574
5677 5675 5672 5670 5667 5664 5661 5658 5654 5650 5647 5643 5639 5634 5630 5626 5622 5618 5613 5609 5605 5601 5596 5592 5588 5584 5580 5576 5573 5570 5567 5565 5564 5563 5562 5562 5563 5564 5564 5566 5566 5567 5567 5568
5663 5661 5658 5655 5652 5649 5646 5642 5639 5635 5631 5627 5624 5619 5615 5610 5607 5603 5598 5593 5589 5585 5581 5576 5572 5569 5565 5561 5558 5555 5553 5551 5550 5550 5551 5552 5553 5554 5555 5557 5559 5560 5561 5561
5650 5647 5644 5641 5638 5634 5631 5628 5624 5620 5616 5612 5609 5604 5600 5596 5591 5587 5583 5578 5574 5570 5566 5562 5558 5554 5551 5547 5544 5542 5540 5539 5539 5539 5541 5542 5544 5545 5547 5549 5551 5553 5554 5555
5636 5633 5629 5627 5623 5620 5617 5613 5610 5606 5602 5598 5595 5591 5586 5582 5578 5574 5570 5566 5561 5557 5554 5550 5546 5542 5539 5536 5533 5531 5529 5529 5529 5530 5532 5533 5535 5538 5540 5542 5545 5547 5549 5550